Preview of NWS' New Version of Forecast
This preview is not operational and should not be used for support decisions.

Regional Weather Roundup (RWR)

Issued by National Weather Service (NWS)

                            
000
ASUS44 KMEG 181710
RWRTN 
TENNESSEE HOURLY STATE WEATHER ROUNDUP
NATIONAL WEATHER SERVICE MEMPHIS TN
1200 PM CDT MON MAR 18 2019

TNZ002-004-019-021-049-052-054-088>092-181800-
WEST TENNESSEE
  
CITY           SKY/WX    TMP DP  RH WIND       PRES   REMARKS
MEMPHIS INTL   PTSUNNY   50  26  39 E12       30.42F                  
NWS MEMPHIS      N/A     51 N/A N/A MISG        N/A                   
JACKSON        FAIR      52  28  39 NE8G18    30.43F                  
DYERSBURG      FAIR      52  29  41 VRB7      30.44F                  
SOMERVILLE     MOSUNNY   52  27  37 NE9       30.40F                  
COVINGTON      SUNNY     52  30  43 NE13      30.42F                  
UNION CITY     SUNNY     52  27  37 N10       30.42F                  
BOLIVAR        SUNNY     52  27  37 NE7       30.41F                  
PARIS          SUNNY     50  23  34 N10G16    30.42F                  
HUNTINGDON     SUNNY     52  25  35 N10       30.42F                  
LEXINGTON      SUNNY     50  21  32 N12       30.41F                  
SELMER         SUNNY     52  25  35 E12       30.40F                  
SAVANNAH       SUNNY     52  27  37 NE10      30.40F                  
$$

TNZ008-025-027-028-033-062-065-066-181800-
NORTH MIDDLE TENNESSEE
  
CITY           SKY/WX    TMP DP  RH WIND       PRES   REMARKS
NASHVILLE      FAIR      50  20  30 NE7G17    30.42F                  
DICKSON        SUNNY     48  19  32 NE8G16    30.40F                  
CLARKSVILLE    FAIR      49  20  31 NW6       30.42F                  
LEBANON        SUNNY     46  21  36 CALM      30.40S                  
SMYRNA         FAIR      49  21  33 N15G21    30.42F                  
MURFREESBORO   SUNNY     48  21  34 NE9       30.39F                  
COOKEVILLE     SUNNY     46  19  34 N7G14     30.37F                  
LIVINGSTON     SUNNY     45  19  36 NE9G16    30.36S                  
GALLATIN       SUNNY     48  21  34 VRB5G14   30.44S                  
CROSSVILLE     FAIR      44  17  33 NE9G21    30.34F                  
ROCKWOOD       SUNNY     45  16  31 N8G14     30.33S                  
$$

TNZ061-075-076-078-094-096-097-181800-
SOUTH MIDDLE TENNESSEE
  
CITY           SKY/WX    TMP DP  RH WIND       PRES   REMARKS
LAWRENCEBURG   SUNNY     48  23  37 N10       30.39F                  
LEWISBURG      SUNNY     48  21  34 VRB5G13   30.40F                  
FAYETTEVILLE   SUNNY     50  21  32 NE9G16    30.38S                  
TULLAHOMA      SUNNY     48  19  32 NE12      30.37S                  
WINCHESTER     SUNNY     48  18  29 N10G17    30.37S                  
MCMINNVILLE    SUNNY     46  19  34 NE8G16    30.38F                  
COLUMBIA       SUNNY     50  21  32 NE8       30.39F                  
SHELBYVILLE    SUNNY     48  21  34 N13       30.39F                  
$$

TNZ017-018-042-046-047-181800-
NORTHEAST TENNESSEE
  
CITY           SKY/WX    TMP DP  RH WIND       PRES   REMARKS
TRI CITIES     FAIR      44  17  33 N8        30.29S                  
ELIZABETHTON   FAIR      46  23  39 VRB7      30.28R                  
GREENEVILLE    SUNNY     45  18  33 VRB7G14   30.29R                  
$$

TNZ012-013-036-069-073-074-181800-
CENTRAL EAST TENNESSEE
  
CITY           SKY/WX    TMP DP  RH WIND       PRES   REMARKS
KNOXVILLE      FAIR      48  15  26 N9        30.34R                  
OAK RIDGE      FAIR      50  17  27 CALM      30.35F                  
DOWNTOWN KNOXV SUNNY     48  14  25 NE5       30.36R                  
GATLINBURG     SUNNY     48  18  29 CALM      30.33S                  
MORRISTOWN     SUNNY     46  21  36 W13       30.31S                  
JACKSBORO      SUNNY     46  12  25 N8G14     30.38R                  
$$

TNZ083-085-099-181800-
SOUTHEAST TENNESSEE
  
CITY           SKY/WX    TMP DP  RH WIND       PRES   REMARKS
CHATTANOOGA    FAIR      52  25  35 N9        30.36F                  
DAYTON         SUNNY     52  21  30 VRB7G16   30.35F                  
$$

SKY/WX REPORTED AS FAIR MEANS FEW OR NO CLOUDS BELOW
12 THOUSAND FEET.